[keps] orb07313.2l.amsat

Ray Hoad r.hoad at att.net
Fri Nov 9 01:58:21 PST 2007


SB KEPS @ AMSAT  $ORB07313.N
2Line Orbital Elements 07313.AMSAT

HR AMSAT ORBITAL ELEMENTS FOR AMATEUR SATELLITES IN NASA FORMAT
FROM WA5QGD FORT WORTH,TX November 9, 2007
Send Subscribe/unsubscribe to KEPS at 
http://www.amsat.org/mailman/listinfo/keps
BID: ORB07313.N

DECODE 2-LINE ELSETS WITH THE FOLLOWING KEY:
1 AAAAAU 00  0  0 BBBBB.BBBBBBBB  .CCCCCCCC  00000-0  00000-0 0  DDDZ
2 AAAAA EEE.EEEE FFF.FFFF GGGGGGG HHH.HHHH III.IIII JJ.JJJJJJJJKKKKKZ
KEY: A-CATALOGNUM B-EPOCHTIME C-DECAY D-ELSETNUM E-INCLINATION F-RAAN
G-ECCENTRICITY H-ARGPERIGEE I-MNANOM J-MNMOTION K-ORBITNUM Z-CHECKSUM

TO ALL RADIO AMATEURS BT

AO-07
1 07530U 74089B   07311.71335854 -.00000028  00000-0  10000-3 0 00223
2 07530 101.4987 345.4120 0011969 337.0811 022.9721 12.53572774509106
AO-10
1 14129U 83058B   07310.85145210 -.00000074  00000-0  10000-3 0 04416
2 14129 026.0168 247.3642 6052211 070.9460 342.8776 02.05871204183506
UO-11
1 14781U 84021B   07311.62927107 -.00000184  00000-0 -17233-4 0 05162
2 14781 098.1800 337.0276 0010245 070.7673 289.4647 14.79589986270947
RS-15
1 23439U 94085A   07311.92954260 -.00000039  00000-0  10000-3 0 00792
2 23439 064.8139 134.4627 0154792 164.7222 195.8454 11.27552878529900
FO-29
1 24278U 96046B   07312.85636004  .00000052  00000-0  86818-4 0  6318
2 24278 098.5723 253.1932 0351343 068.6036 295.2202 13.52934205554462
SO-33
1 25509U 98061B   07311.83983700 -.00000146  00000-0 -43634-4 0   588
2 25509 031.4303 133.5452 0356071 243.2130 113.1635 14.28183020471806
AO-40
1 26609U 00072B   07310.86476474  .00000008  00000-0  10000-3 0 09654
2 26609 006.9211 112.3944 7935624 020.6658 358.5925 01.25583636032237
VO-52
1 28650U 05017B   07311.78205166  .00000325  00000-0  48042-4 0 07733
2 28650 097.8181 019.1749 0027648 143.7318 216.5753 14.81379466135672
PO-63
1 29712U 07001D   07312.67609952  .00000597  00000-0  85869-4 0  8941
2 29712 097.9069 009.7216 0014715 025.8811 334.3135 14.79887483 44707
AO-16
1 20439U 90005D   07311.56264680  .00000008  00000-0  18312-4 0 01743
2 20439 098.2091 298.3097 0011667 116.3354 243.9027 14.31774666929069
LO-19
1 20442U 90005G   07311.57712656  .00000035  00000-0  27923-4 0 00993
2 20442 098.1880 307.4365 0012830 116.2056 244.0467 14.32014585929214
AO-27
1 22825U 93061C   07311.50576046  .00000072  00000-0  44777-4 0 08220
2 22825 098.3523 275.2811 0008172 193.0839 167.0143 14.29222216735961
IO-26
1 22826U 93061D   07311.45838571  .00000015  00000-0  22296-4 0 05225
2 22826 098.3462 276.2464 0008501 190.6040 169.4963 14.29468972736049
PO-28
1 22829U 93061G   07312.46360674 -.00000056  00000-0 -55971-5 0  7961
2 22829 098.3339 278.3538 0009965 160.6439 199.5128 14.30170939736439
GO-32
1 25397U 98043D   07311.65822572  .00000047  00000-0  38908-4 0 04469
2 25397 098.3970 352.4636 0001564 133.2055 226.9273 14.23133373484566
MO-46
1 26548U 00057D   07311.66820084 -.00000001  00000-0  17483-4 0  9419
2 26548 064.5556 098.7685 0002432 352.2091 007.8922 14.83191635384817
NO-44
1 26931U 01043C   07311.86784422  .00000089  00000-0  67044-4 0 07273
2 26931 067.0521 137.3710 0005612 248.8310 111.2148 14.29502245318639
SO-50
1 27607U 02058C   07311.61110650 -.00000077  00000-0  10218-4 0 04513
2 27607 064.5605 009.5530 0070849 324.6706 034.9705 14.71298789262226
CO-55
1 27844U 03031E   07311.51212892  .00000037  00000-0  37542-4 0 01621
2 27844 098.7197 317.8651 0010625 041.1857 319.0115 14.20540943225820
CO-57
1 27848U 03031J   07311.55115978  .00000046  00000-0  41980-4 0  1177
2 27848 098.7190 317.0518 0010562 043.8203 316.3808 14.20356293225805
AO-51
1 28375U 04025K   07311.65013145  .00000019  00000-0  18191-4 0 09548
2 28375 098.0966 343.4657 0084621 107.0909 253.9572 14.40585644176361
CO-56
1 28941U 06005C   07311.82108482  .00025301  24588-5  23380-3 0  6393
2 28941 098.1146 029.3686 0206083 122.2041 239.9197 15.45589483 95578
HO-59
1 29484U 06041F   07312.68849737  .00044084  30247-5  23608-3 0  8399
2 29484 098.2652 025.5109 0166928 103.4752 258.5120 15.63161577 63551
NO-61
1 29664U 06055F   07312.68404304  .00094633  15661-4  12204-3 0  6330
2 29664 051.6293 044.2340 0004006 215.4116 144.6628 16.07016133 51254
CP4
1 31122U 07012F   07312.66984645  .00000548  00000-0  13192-3 0  1808
2 31122 098.0721 021.1710 0084780 297.0383 062.2170 14.55049102 29863
CP3
1 31128U 07012M   07311.67017624 -.00000049  00000-0  00000-0 0 01761
2 31128 098.0684 019.1866 0101987 303.1150 056.0315 14.51880109029640
LIBERT
1 31129U 07012N   07312.76039171  .00000335  00000-0  89029-4 0  5004
2 31129 098.0696 020.2540 0100931 299.5046 059.6114 14.51973074 29781
NOAA-10
1 16969U 86073A   07311.93900633  .00000088  00000-0  53985-4 0 08810
2 16969 098.7404 329.1729 0013099 107.1186 253.1426 14.27340087099731
NOAA-11
1 19531U 88089A   07311.83131549 -.00000279  00000-0 -12162-3 0 09139
2 19531 098.8089 039.1821 0011600 346.1703 013.9151 14.14853614986469
NOAA-12
1 21263U 91032A   07311.91153044 -.00000078  00000-0 -14278-4 0 04200
2 21263 098.7616 308.9738 0013221 053.8505 306.3876 14.25500582856729
MET-3/5
1 21655U 91056A   07311.90672137  .00000051  00000-0  10000-3 0 03698
2 21655 082.5533 261.3924 0012316 205.6801 154.3711 13.17013054780326
MET-2/21
1 22782U 93055A   07311.48036472 -.00000043  00000-0 -52721-4 0 09809
2 22782 082.5447 288.2349 0022016 190.5931 169.4769 13.83620037716333
OKEAN-4
1 23317U 94066A   07312.75234475  .00000160  00000-0  16765-4 0  4183
2 23317 082.5384 161.6772 0023451 133.6833 226.6348 14.82547663705470
NOAA-14
1 23455U 94089A   07311.75161321  .00000072  00000-0  61764-4 0 08892
2 23455 098.9751 018.5891 0010047 058.8711 301.3446 14.13728515662927
SICH-1
1 23657U 95046A   07311.67677484  .00000146  00000-0  15430-4 0 02180
2 23657 082.5253 303.6226 0025474 129.0414 231.3076 14.81523870657273
NOAA-15
1 25338U 98030A   07311.79630899  .00000116  00000-0  68233-4 0 02339
2 25338 098.5413 304.5063 0010272 336.0170 024.0497 14.24671472493130
RESURS
1 25394U 98043A   07312.72850582 -.00000031  00000-0  45942-5 0  7809
2 25394 098.4207 001.4010 0002087 103.6113 256.5298 14.24148046484921
FENGYUN1
1 25730U 99025A   07312.86192980  .00000449  00000-0  29038-3 0  2634
2 25730 098.7052 291.3513 0020647 071.6577 288.6837 14.07638765437829
OKEAN-0
1 25860U 99039A   07312.46914449  .00000060  00000-0  16485-4 0  2059
2 25860 097.7383 308.0349 0000549 051.0547 309.0709 14.73483374446744
NOAA-16
1 26536U 00055A   07311.92057566  .00000253  00000-0  16202-3 0 06760
2 26536 099.1351 291.4911 0011139 127.1741 233.0422 14.12458901367396
NOAA-17
1 27453U 02032A   07311.79788196  .00000087  00000-0  56460-4 0 06712
2 27453 098.5659 017.5470 0012336 040.5579 319.6530 14.23922483279153
NOAA-18
1 28654U 05018A   07311.76839045 -.00000045  00000-0 -84248-6 0 01910
2 28654 098.8427 250.7211 0013659 220.4570 139.5614 14.11107512127100
HUBBLE
1 20580U 90037B   07311.43322260  .00000340  00000-0  13487-4 0 00083
2 20580 028.4688 335.9916 0003877 177.8644 182.1959 15.00299464761493
UARS
1 21701U 91063B   07311.76101465  .00003873  00000-0  65231-4 0 02267
2 21701 056.9726 050.3100 0095398 108.9850 252.1573 15.49551725887992
PO-34
1 25520U 98064B   07311.91882082  .00000413  00000-0  10625-4 0 08626
2 25520 028.4601 226.7217 0005025 025.1698 334.9140 15.17077880499377
ISS
1 25544U 98067A   07312.70444825  .00013463  00000-0  88929-4 0  3167
2 25544 051.6404 078.7401 0001398 156.5713 345.2148 15.75953300513574
OO-38
1 26063U 00004C   07311.65070322 -.00000026  00000-0  11157-4 0   548
2 26063 100.2236 340.7605 0037257 116.0097 244.4930 14.35818912407634
UWE-1
1 28892U 05043C   07312.72709210  .00000060  00000-0  22285-4 0  8934
2 28892 098.1152 206.3619 0017880 024.1436 336.0602 14.59557883108293
CO-58
1 28895U 05043F   07311.67306030  .00000128  00000-0  36551-4 0 08692
2 28895 098.1162 205.5966 0018607 027.4784 332.7419 14.59601164108025
NCUBE2
1 28897U 05043H   07312.28012043  .00000148  00000-0  40592-4 0  3967
2 28897 098.1141 206.1355 0017950 026.6360 333.5754 14.59766907100394
FCAL
1 29667U 06055J   07312.68087230  .00021099  11394-4  63738-4 0  4789
2 29667 051.6320 053.5371 0010340 191.7362 168.3399 15.94280437 51008
FALCON
1 30776U 07006E   07312.69098623  .00000246  00000-0  21084-4 0  1793
2 30776 035.4332 056.6077 0001956 284.7328 075.3171 15.02796599 36805
MAST
1 31126U 07012K   07311.25271908  .00000052  00000-0  22927-4 0  1770
2 31126 098.0694 019.2640 0093948 303.0836 056.1371 14.53374341 29637
CAPE1
1 31130U 07012P   07311.73646959 -.00000090  00000-0 -96733-5 0 01625
2 31130 098.0712 019.2548 0102116 302.9112 056.2285 14.51898456029443
/EX






More information about the Keps mailing list